Location: Macksville High School
(37.9611°N, 99.9654°W)
Time: 11:12:19
(UTC+00:00)

USA 276 - Visible Passes

Search period start: 14 May 2021 00:00
Search period end: 24 May 2021 00:00
Orbit: 385 x 387 km, 50.0° (Epoch: 13 May)

Date Brightness Start Highest point End Pass type
(mag) Time Alt. Az. Time Alt. Az. Time Alt. Az.
14 May 5.6 08:01:29 12° NNE 08:01:29 12° NNE 08:01:58 10° NNE visible
15 May 5.4 08:38:22 10° N 08:38:37 10° N 08:38:52 10° N visible
15 May 5.2 10:14:29 10° NNW 10:15:58 13° NNE 10:17:27 10° NE visible
16 May 5.8 07:41:19 10° N 07:41:19 10° N 07:41:26 10° NNE visible
16 May 5.5 09:16:54 10° N 09:17:24 10° N 09:17:54 10° NNE visible
16 May 4.5 10:51:46 10° NNW 10:54:28 25° NNE 10:57:11 10° E visible
17 May 5.2 09:53:56 10° NNW 09:56:03 16° NNE 09:58:10 10° ENE visible
18 May 5.4 08:56:10 10° NNW 08:57:33 12° NNE 08:58:54 10° NE visible
18 May 3.5 10:31:23 10° NW 10:34:25 41° NNE 10:37:26 10° ESE visible
19 May 5.7 07:58:45 10° N 07:58:58 10° N 07:59:12 10° N visible
19 May 4.7 09:33:27 10° NNW 09:36:05 23° NNE 09:38:42 10° E visible
20 May 4.0 03:43:26 10° SW 03:44:38 21° SW 03:44:38 21° SW visible
20 May 5.3 08:35:37 10° NNW 08:37:39 16° NNE 08:39:40 10° ENE visible
20 May 2.2 10:11:06 10° NW 10:14:16 79° NE 10:17:26 10° ESE visible
21 May 2.8 02:45:37 10° SSW 02:48:30 33° SE 02:51:23 10° ENE visible
21 May 4.3 04:21:57 10° W 04:24:44 27° NNW 04:27:02 13° NNE visible
21 May 5.6 07:38:30 11° N 07:39:07 12° NNE 07:40:21 10° NE visible
21 May 3.7 09:13:03 10° NW 09:16:02 37° NNE 09:19:00 10° E visible
21 May 3.4 10:49:36 10° W 10:52:06 21° SW 10:54:35 10° S visible
22 May 3.0 03:23:20 10° WSW 03:26:25 51° NNW 03:29:32 10° NE visible
22 May 5.5 05:01:35 10° NW 05:03:13 13° NNW 05:04:50 10° NNE visible
22 May 5.0 08:19:16 15° ENE 08:19:16 15° ENE 08:20:13 10° ENE visible
22 May 2.2 09:51:55 18° WNW 09:54:04 49° SW 09:57:08 10° SE visible
23 May 2.0 02:25:06 10° SW 02:28:14 70° SE 02:31:23 10° ENE visible
23 May 5.0 04:02:25 10° WNW 04:04:44 18° NNW 04:07:03 10° NNE visible
